Regional Weather Roundup
Issued by NWS

Home | Current Version | Previous Version | Text Only | Print | Product List | Glossary On
Versions: 1 2 3 4 5 6 7 8 9 10 11 12 13 14 15 16 17 18 19 20 21 22 23 24 25 26 27 28 29 30 31 32 33 34 35 36 37 38 39 40 41 42 43 44 45 46 47 48 49 50
000
ASUS45 KBOI 271910
RWRID
WEATHER ROUNDUP FOR IDAHO
NATIONAL WEATHER SERVICE BOISE ID
1200 PM MST TUE JAN 27 2015

NOTE: "FAIR" INDICATES FEW OR NO CLOUDS BELOW 12000 FEET
WITH NO SIGNIFICANT WEATHER AND/OR OBSTRUCTIONS TO VISIBILITY

IDZ012-014-272000-
SOUTHWEST IDAHO


CITY           SKY/WX    TMP DP  RH WIND       PRES   REMARKS
BOISE          CLOUDY    32  30  93 CALM      30.12F FOG
CALDWELL       CLOUDY    34  27  75 CALM      30.16S VSB 3/4
MOUNTAIN HOME  FOG       32  32 100 S3        30.12R VSB 1/2
$$

IDZ016-017-272000-
SOUTHCENTRAL IDAHO


CITY           SKY/WX    TMP DP  RH WIND       PRES   REMARKS
BURLEY         CLOUDY    50  35  56 SW20G28   30.10F
JEROME         CLOUDY    45  35  68 NE10      30.11S
TWIN FALLS     CLOUDY    53  33  46 S21G37    30.06F
$$

IDZ019>023-272000-
SOUTHEAST IDAHO


CITY           SKY/WX    TMP DP  RH WIND       PRES   REMARKS
IDAHO FALLS    MOSUNNY   35  29  78 N5        30.16F WCI  31
POCATELLO      SUNNY     39  36  89 CALM      30.16S
REXBURG        MOSUNNY   45  26  47 NE3       30.16F
$$

IDZ006-010-011-018-031-032-272000-
CENTRAL IDAHO MOUNTAINS


CITY           SKY/WX    TMP DP  RH WIND       PRES   REMARKS
MCCALL         PTSUNNY   28  26  92 CALM      30.06F
STANLEY          N/A     18  15  88 CALM      30.14F
SALMON         CLOUDY   N/A N/A N/A CALM      30.16F VSB 3/4
CHALLIS        CLOUDY    34  29  82 CALM      30.12F
$$

IDZ002-004-006-007-026-272000-
NORTHERN IDAHO


CITY           SKY/WX    TMP DP  RH WIND       PRES   REMARKS
LEWISTON       PTSUNNY   45  37  73 CALM      30.04F
LOWELL           N/A     41  34  76 CALM      30.11F
COEUR D`ALENE  CLOUDY    34  30  86 NE7       30.01F VSB 1/4 WCI  28
MULLAN PASS    PTSUNNY   45  26  47 VRB6      30.02S
$$



USA.gov is the U.S. government's official web portal to all federal, state and local government web resources and services.